IZ3VCM Weather Reports


Display with metric or nautical units.
time (UTC)temp
F
wind
direction
speed
MPH
gust
MPH
rain 1hr
in
rain 24hr
in
rain mn
in
humidity
%
barometer
mb
20260508094503 75 138 2.0 7.0 0.00 0.00 0.00 63 1015.6
20260508093006 74 97 6.0 9.0 0.00 0.00 0.00 65 1015.8
20260508091503 74 68 1.0 5.0 0.00 0.00 0.00 66 1015.7
20260508090005 73 90 1.0 2.0 0.00 0.00 0.00 70 1015.7
20260508084503 69 96 3.0 5.0 0.00 0.00 0.00 74 1015.7
20260508083006 69 112 2.0 5.0 0.00 0.00 0.00 74 1015.8
20260508081503 69 108 3.0 7.0 0.00 0.00 0.00 75 1015.7
20260508080004 69 115 3.0 9.0 0.00 0.00 0.00 76 1015.8
20260508074502 68 87 4.0 6.0 0.00 0.00 0.00 78 1015.6
20260508073005 69 124 3.0 6.0 0.00 0.00 0.00 78 1015.5
20260508071503 70 96 0.0 6.0 0.00 0.00 0.00 78 1015.5
20260508070005 69 109 4.0 5.0 0.00 0.00 0.00 81 1015.5
20260508064504 66 90 1.0 4.0 0.00 0.00 0.00 83 1015.4
20260508063005 63 111 0.0 1.0 0.00 0.00 0.00 86 1015.4
20260507221503 54 0 0.0 0.0 0.00 0.00 0.00 87 1014.3
20260507220005 53 0 0.0 0.0 0.00 0.00 0.00 85 1014.3
20260507214503 55 0 0.0 0.0 0.00 0.00 0.00 84 1014.0
20260507213004 55 0 0.0 0.0 0.00 0.00 0.00 83 1013.8
20260507211502 57 0 0.0 0.0 0.00 0.00 0.00 82 1013.8
20260507210005 57 0 0.0 0.0 0.00 0.00 0.00 80 1014.1
20260507204503 59 0 0.0 0.0 0.00 0.00 0.00 78 1013.9
20260507203005 60 0 0.0 0.0 0.00 0.00 0.00 76 1013.9
20260507201503 60 181 1.0 5.0 0.00 0.00 0.00 75 1013.7
20260507200005 60 0 0.0 0.0 0.00 0.00 0.00 73 1013.7
20260507194503 61 135 1.0 4.0 0.00 0.00 0.00 72 1013.5
20260507193005 62 0 0.0 0.0 0.00 0.00 0.00 71 1013.4
20260507191502 63 181 0.0 2.0 0.00 0.00 0.00 68 1013.1
20260507190006 64 0 0.0 0.0 0.00 0.00 0.00 66 1012.9
20260507184502 65 181 0.0 3.0 0.00 0.00 0.00 65 1012.7
20260507183005 67 181 1.0 2.0 0.00 0.00 0.00 63 1012.4
20260507181502 68 165 2.0 4.0 0.00 0.00 0.00 58 1012.3
20260507180005 70 0 0.0 0.0 0.00 0.00 0.00 53 1012.1
20260507174503 73 203 0.0 1.0 0.00 0.00 0.00 50 1011.7
20260507173005 74 181 0.0 2.0 0.00 0.00 0.00 47 1011.5
20260507171503 76 214 2.0 5.0 0.00 0.00 0.00 45 1011.6
20260507170005 77 0 0.0 0.0 0.00 0.00 0.00 44 1011.5
20260507164502 77 0 0.0 0.0 0.00 0.00 0.00 45 1011.4
20260507163005 78 0 0.0 0.0 0.00 0.00 0.00 45 1011.3
20260507161504 78 161 1.0 2.0 0.00 0.00 0.00 44 1011.4
20260507160005 78 263 1.0 3.0 0.00 0.00 0.00 43 1011.5
20260507154503 79 156 1.0 2.0 0.00 0.00 0.00 43 1011.4
20260507153005 79 225 1.0 4.0 0.00 0.00 0.00 44 1011.4
20260507151503 76 225 0.0 5.0 0.00 0.00 0.00 46 1011.5
20260507150005 76 225 0.0 5.0 0.00 0.00 0.00 46 1011.7
20260507144503 74 181 0.0 6.0 0.00 0.00 0.00 50 1011.7
20260507143005 73 156 0.0 2.0 0.00 0.00 0.00 50 1011.6
20260507141503 74 181 0.0 2.0 0.00 0.00 0.00 49 1011.7
20260507140006 74 217 2.0 5.0 0.00 0.00 0.00 47 1011.7
20260507134503 76 281 2.0 5.0 0.00 0.00 0.00 46 1011.7
20260507133005 76 203 1.0 4.0 0.00 0.00 0.00 46 1011.8
20260507131503 75 225 0.0 5.0 0.00 0.00 0.00 49 1011.8
20260507130005 75 292 1.0 3.0 0.00 0.00 0.00 48 1011.8
20260507124502 77 224 2.0 5.0 0.00 0.00 0.00 45 1011.8
20260507121502 77 265 2.0 6.0 0.00 0.00 0.00 46 1011.9
20260507120005 76 207 1.0 6.0 0.00 0.05 0.00 47 1012.0
20260507114503 74 247 0.0 1.0 0.00 0.16 0.00 50 1012.2
20260507113006 76 237 3.0 6.0 0.00 0.21 0.00 48 1012.3
20260507111503 75 231 4.0 6.0 0.00 0.21 0.00 50 1012.4
20260507110005 74 213 4.0 6.0 0.00 0.21 0.00 50 1012.5
20260507104502 74 185 5.0 7.0 0.00 0.21 0.00 51 1012.7
20260507103005 74 247 0.0 1.0 0.00 0.21 0.00 52 1012.8
20260507101502 74 218 2.0 5.0 0.00 0.21 0.00 52 1013.0
20260507100005 73 261 2.0 5.0 0.00 0.21 0.00 54 1013.0